Theta_e
322 320 318 318 316 315 314 315 317 318 320 323 326 329 329 330 330 329 328 327 328 328 329 330 328 328 328 328 327 328 329 326 325 323 320 319 320 326 324 317 313 311 310 311 312 314 316 315 311 311 312 314 317 317 317 318 318 319 320 320 318 319 319 319 318 317 317 317 315 313 314 318 316 314 314 314 315 314 315 315 315 316 317 316 317 317 317 314
321 320 318 318 316 315 315 315 317 318 319 320 323 326 328 329 331 331 330 330 330 329 330 331 330 330 329 328 327 327 327 325 325 323 321 320 321 325 323 316 313 310 309 311 312 313 315 315 311 312 315 316 317 317 318 318 318 319 320 319 319 320 318 317 317 316 316 316 315 313 314 317 317 315 314 315 316 314 315 315 315 315 316 316 316 317 317 314
321 320 318 317 316 316 315 316 318 319 319 319 319 322 325 327 330 332 332 332 331 329 329 330 330 330 329 328 325 325 324 320 320 323 322 321 323 323 319 316 313 311 309 311 313 314 315 314 311 313 316 316 316 316 318 318 318 318 318 319 320 320 317 315 315 315 314 315 315 314 313 315 315 314 314 316 316 315 316 317 316 315 316 316 315 316 317 316
320 319 317 315 316 316 315 316 318 319 319 318 317 318 321 323 326 329 331 332 331 329 328 328 328 327 327 325 324 323 318 313 316 325 325 323 324 321 317 315 313 310 309 311 313 314 314 312 311 314 316 316 316 316 318 318 317 317 318 319 319 319 317 315 314 314 313 313 314 313 313 314 314 314 315 316 315 316 317 317 316 316 316 315 315 315 316 316
320 319 317 315 315 316 315 315 317 319 318 317 316 316 317 319 321 324 328 330 330 328 326 326 325 325 324 323 323 319 313 315 319 321 321 321 321 317 315 315 312 309 309 312 314 314 313 311 312 315 315 316 316 317 317 316 316 317 316 316 316 317 317 315 313 313 313 313 313 313 314 314 313 313 314 315 316 316 317 316 315 316 316 315 315 315 316 316
319 318 316 314 314 315 315 315 315 317 317 316 316 314 315 316 319 323 326 330 330 327 325 325 324 324 324 322 319 314 314 319 316 312 313 313 314 313 314 314 311 309 310 313 313 313 312 310 312 315 315 315 317 316 316 315 315 317 315 312 313 314 315 314 312 313 313 312 313 313 314 314 313 314 313 314 316 316 315 314 314 315 315 315 315 315 315 316
319 318 316 314 314 315 315 315 315 317 317 317 316 314 316 317 319 323 326 329 329 326 324 324 323 323 321 316 312 309 313 318 312 311 313 310 310 311 314 313 310 309 311 313 313 312 311 311 313 315 315 315 316 315 315 314 314 317 315 312 312 312 313 313 312 313 312 313 313 313 314 313 314 314 312 313 316 316 315 315 314 314 314 315 315 315 315 315
317 317 315 314 315 316 315 314 316 317 317 316 315 316 317 318 320 323 326 327 326 324 323 323 323 322 316 311 310 309 310 314 312 311 313 312 311 312 314 312 309 309 311 313 312 311 310 311 313 314 315 314 315 314 314 315 315 316 315 312 311 311 311 312 312 312 311 312 312 313 314 313 313 313 312 314 315 315 315 315 314 314 314 314 314 315 315 315
316 315 314 314 315 315 314 315 316 316 316 315 316 317 318 319 320 322 324 324 323 323 323 323 322 317 311 309 310 309 310 313 311 310 312 312 312 313 314 311 309 310 312 313 312 311 311 312 313 314 314 313 314 314 314 315 316 315 313 312 311 310 310 311 311 311 311 311 312 313 313 312 312 311 313 315 315 314 314 314 314 315 314 314 314 314 315 315
314 314 314 315 315 314 315 316 316 316 315 316 317 317 318 319 319 319 322 322 322 322 321 320 316 311 308 309 309 309 311 311 309 310 312 311 311 312 312 310 309 311 313 313 311 310 311 312 313 313 313 313 313 313 313 314 314 313 311 311 311 310 310 310 311 310 311 311 312 314 313 312 311 312 315 315 314 314 314 314 314 314 314 314 314 314 314 315
313 314 316 315 314 313 315 316 315 315 316 317 317 317 318 318 318 318 320 321 322 320 317 314 311 309 308 309 309 308 311 310 308 310 311 311 311 309 310 310 311 313 313 312 311 310 311 312 313 313 312 313 312 312 312 313 312 312 312 312 311 311 311 311 311 310 311 312 312 313 312 311 310 312 315 315 314 314 314 314 314 314 314 314 314 314 314 315
313 314 315 314 313 314 316 315 314 315 317 317 317 317 317 317 317 318 320 320 319 316 312 310 309 308 308 309 309 309 311 311 310 310 310 311 310 309 310 311 313 313 312 311 310 310 311 312 313 313 312 313 312 312 313 312 311 312 313 314 312 312 313 311 311 311 312 313 312 312 313 313 312 313 315 314 314 314 314 314 314 314 314 314 314 314 314 315
314 314 314 314 314 314 314 314 314 316 317 316 317 316 316 317 317 318 319 318 315 311 310 309 309 308 308 308 309 309 310 311 311 310 310 311 310 311 313 313 313 312 311 311 310 310 311 312 313 312 312 313 312 312 312 311 311 312 312 313 313 313 314 311 310 311 311 312 311 311 312 314 315 314 314 313 313 314 313 314 314 314 314 314 314 314 314 315
314 313 313 314 315 314 313 313 315 316 316 316 316 315 316 316 317 318 317 314 311 309 309 309 308 308 308 309 309 309 309 311 313 311 311 311 311 314 314 313 313 312 311 311 311 311 311 312 312 312 312 312 312 311 312 311 311 312 312 313 314 314 313 310 309 311 312 312 311 311 312 314 314 312 311 312 313 313 313 313 313 314 314 314 314 314 314 315
312 313 314 314 314 314 312 313 315 315 314 315 315 315 315 315 315 313 311 310 308 308 308 308 307 307 308 309 309 310 309 310 313 313 312 312 313 315 313 312 312 311 311 311 311 311 311 312 312 312 312 312 312 312 312 312 311 312 312 313 314 313 313 311 309 310 312 312 311 311 312 314 314 312 310 311 311 312 313 313 313 313 314 314 314 314 314 315
312 313 314 314 314 313 312 312 313 313 313 313 314 314 313 312 310 309 308 308 308 308 308 307 307 307 308 308 309 309 308 309 312 314 313 312 314 314 312 311 312 312 312 312 312 312 312 312 312 312 311 311 312 313 313 313 312 312 313 315 314 313 313 312 310 309 310 312 311 311 313 313 314 313 311 311 312 312 313 313 313 313 313 313 314 314 314 315
312 313 314 314 313 312 311 312 313 312 312 312 312 311 309 308 307 307 307 307 307 307 307 307 307 308 308 308 310 310 309 309 311 314 314 313 313 312 311 312 313 313 312 313 313 312 312 312 311 312 312 312 313 314 313 313 313 313 313 314 313 312 312 312 312 310 309 311 313 311 311 313 314 313 312 312 313 312 312 314 314 314 314 313 313 314 314 314
313 314 314 313 312 311 311 312 312 312 312 310 309 308 307 307 307 307 307 307 307 307 307 307 307 308 308 308 310 311 310 309 310 313 314 312 312 312 311 313 314 314 313 313 313 312 312 312 312 313 313 312 312 314 313 313 314 313 313 313 312 311 311 312 312 310 309 311 313 312 312 313 313 313 313 313 312 312 312 313 314 314 314 314 314 314 314 315
313 314 313 312 312 311 311 311 311 311 310 308 308 307 307 307 307 307 306 306 307 307 308 308 307 308 309 307 310 312 311 310 310 313 314 312 312 311 312 313 313 314 313 313 313 312 313 313 313 314 313 313 313 314 314 314 315 314 314 314 313 312 311 311 311 308 309 312 313 313 313 313 313 314 314 314 312 311 312 313 314 315 315 315 315 315 315 315
313 313 312 312 311 311 311 311 311 310 308 308 308 308 308 309 309 309 308 306 308 308 308 309 307 309 310 307 310 312 311 311 311 313 313 311 311 312 312 313 313 314 313 314 314 312 313 314 314 314 314 314 314 313 313 313 314 314 314 314 315 314 312 311 310 308 308 312 313 313 313 313 313 314 315 315 313 312 312 313 314 315 315 316 316 316 316 316
312 312 312 312 312 311 310 310 310 309 308 308 307 307 309 310 310 311 309 308 309 308 308 308 307 310 310 308 311 312 311 312 312 313 312 311 311 312 312 313 313 313 312 313 313 312 313 314 315 315 313 313 312 311 311 311 312 313 313 313 313 314 312 310 310 308 307 311 313 311 312 313 313 314 315 315 314 313 314 314 314 315 316 316 316 316 316 316
313 312 312 312 311 311 309 309 309 308 308 308 307 307 308 309 310 309 309 309 309 309 309 307 307 310 309 310 312 312 312 312 312 312 312 311 312 311 312 312 312 312 311 311 312 313 313 315 315 312 310 310 310 309 311 312 312 313 314 313 313 313 312 310 309 308 307 311 313 311 312 314 314 314 315 316 315 315 315 314 314 314 315 315 315 315 315 315
312 312 312 311 311 310 309 309 309 309 309 308 307 308 308 309 310 308 308 310 309 309 309 307 308 310 310 311 312 312 312 312 312 312 311 312 312 311 312 312 312 312 311 312 313 314 314 314 312 309 308 309 309 309 311 312 312 314 314 313 313 314 313 311 311 309 306 308 311 312 313 315 315 314 314 314 312 312 312 312 312 312 313 314 314 314 314 315
312 311 311 311 310 310 309 309 310 310 309 307 308 308 308 310 309 308 309 309 309 309 309 307 308 310 311 312 312 312 311 312 312 312 311 312 311 311 312 312 312 312 311 311 312 314 313 309 306 307 309 311 311 310 312 313 312 314 316 315 314 314 313 313 312 309 308 307 308 311 313 314 315 314 314 312 308 308 309 309 310 310 311 312 312 313 313 314
312 311 311 310 310 310 309 310 310 309 308 307 308 308 309 310 308 308 309 308 309 309 309 308 308 310 311 311 312 312 311 311 312 312 311 312 311 311 311 311 311 312 312 311 311 313 312 305 304 308 310 312 313 311 313 315 313 314 315 315 315 314 313 313 312 311 312 312 310 311 312 313 315 315 314 312 310 310 309 308 310 310 311 311 312 312 312 312
313 312 311 310 310 310 310 310 309 308 307 308 308 308 309 309 307 308 309 309 309 308 308 309 308 309 311 312 312 311 311 312 312 312 311 311 311 311 311 310 310 311 311 310 311 312 309 304 306 311 311 314 314 312 315 316 313 313 314 315 314 314 316 315 314 314 314 312 310 309 311 312 314 315 315 313 312 313 311 310 311 312 313 313 313 313 313 313
315 313 311 310 310 310 309 310 308 307 308 308 307 308 309 309 307 308 309 308 309 309 308 308 308 309 311 312 312 310 311 312 312 312 312 311 311 311 312 310 309 310 308 309 312 311 307 305 308 312 312 314 313 313 315 315 313 314 314 314 314 315 319 318 316 315 313 312 311 311 313 312 312 315 315 311 312 313 313 312 313 313 313 313 313 313 313 313
315 315 313 310 310 310 308 309 308 307 308 308 307 309 309 308 307 308 309 308 309 309 308 307 308 309 311 312 311 310 312 313 313 313 312 311 311 311 311 311 311 311 307 309 312 310 308 309 310 312 312 313 314 315 315 313 314 315 310 311 314 315 317 317 315 313 311 311 312 313 313 311 311 315 314 310 311 314 314 313 314 314 313 312 313 312 310 311
315 315 314 311 310 309 308 308 307 307 308 307 308 309 309 308 308 309 309 309 309 308 307 308 309 310 311 311 310 310 311 312 313 313 312 312 311 310 311 310 310 310 308 310 314 311 310 310 309 311 313 313 313 310 310 314 315 311 307 310 313 313 314 315 314 312 311 311 313 313 311 310 311 316 315 311 311 314 314 313 313 313 311 311 313 312 311 310
315 315 315 313 310 308 308 308 307 307 308 307 308 309 308 307 308 308 308 309 310 308 306 308 309 311 311 310 309 310 311 311 312 312 311 311 310 310 310 310 310 311 312 314 314 311 309 308 308 310 311 310 308 305 306 313 312 309 310 313 313 313 313 312 311 311 311 312 312 309 308 309 310 314 317 313 312 312 313 313 313 313 312 311 312 313 313 312
315 315 315 314 311 308 308 308 307 307 307 308 309 308 307 309 308 308 308 310 311 308 306 307 309 311 311 310 310 310 310 311 311 312 311 310 310 309 310 310 311 312 314 314 313 312 310 309 309 309 307 306 308 308 306 307 307 310 314 314 313 313 312 312 311 311 313 313 309 305 305 308 309 313 315 312 311 310 312 314 313 313 313 311 311 313 314 315
314 315 315 314 312 309 308 307 307 307 307 308 309 307 308 309 308 309 309 309 310 309 308 308 308 310 311 311 312 311 311 312 311 312 312 311 310 310 311 312 312 313 312 311 313 313 312 312 310 309 307 307 312 312 307 307 309 311 314 313 313 313 312 313 313 312 313 311 306 304 306 308 310 312 312 310 311 310 310 313 313 312 312 311 311 313 313 314
315 314 314 313 312 309 307 307 307 307 308 308 308 307 309 309 308 310 308 307 310 309 309 309 309 310 311 311 312 311 312 313 311 312 312 312 311 311 313 313 314 316 314 313 313 313 313 314 312 311 309 309 313 313 310 310 310 312 314 314 313 314 313 313 312 310 310 309 305 304 306 309 311 312 312 312 311 309 309 310 311 311 311 310 311 313 313 313
314 314 314 313 312 309 307 307 307 307 308 309 308 309 311 309 309 311 309 308 309 308 308 310 310 311 311 311 312 311 312 312 311 312 312 312 312 311 312 311 313 317 316 313 313 313 314 314 313 313 311 310 312 313 313 314 312 313 316 315 313 314 314 313 312 311 311 309 306 304 307 311 312 311 311 311 309 308 308 309 309 309 310 310 310 313 313 313
314 314 314 312 312 310 308 308 307 308 309 308 308 309 310 310 309 310 309 308 309 308 309 310 311 311 311 311 311 311 312 312 311 312 312 312 312 311 312 311 311 314 314 312 312 312 313 312 312 310 309 309 312 311 312 314 312 311 311 312 312 314 313 309 307 308 308 308 308 307 309 312 312 311 310 308 307 308 308 308 309 310 310 309 310 313 314 313
314 314 313 312 312 310 308 308 308 309 309 308 309 309 310 311 311 311 310 308 309 309 309 310 311 312 311 311 311 311 311 312 312 312 312 312 313 312 312 312 312 312 312 314 313 312 311 311 311 310 308 308 310 310 310 312 312 311 310 310 311 312 314 310 305 304 305 309 311 309 311 312 311 311 311 309 310 311 309 308 308 310 311 309 310 313 314 313
313 313 313 312 312 310 308 308 309 310 309 308 309 310 312 312 310 311 310 309 310 310 310 311 311 312 312 311 312 311 312 313 312 312 313 312 312 312 313 312 311 311 312 313 314 314 313 312 311 312 312 309 306 307 308 307 309 311 312 311 309 310 312 311 309 307 307 310 311 309 310 311 309 311 312 310 312 313 311 309 308 308 310 309 310 313 314 314
312 312 312 312 312 310 308 307 309 310 308 308 309 312 316 312 308 310 310 308 310 311 311 312 311 312 312 311 312 311 312 313 312 312 313 312 312 313 312 312 311 310 310 310 312 315 316 312 311 311 312 310 307 309 310 307 307 310 311 311 310 311 311 309 310 311 310 310 311 309 307 308 310 311 311 311 312 313 312 310 309 308 309 309 310 313 314 314
311 311 312 312 311 310 309 308 310 311 308 308 309 311 316 315 308 307 308 308 310 311 311 313 312 311 312 312 312 311 312 312 311 312 313 312 312 312 312 312 313 310 308 309 311 314 315 314 312 311 311 311 310 311 313 311 308 307 308 308 310 312 312 310 310 310 311 310 311 310 307 308 311 312 311 312 312 312 312 312 310 310 310 310 311 314 314 313
310 311 311 311 311 310 310 309 310 311 309 309 310 311 314 315 310 306 306 309 311 310 311 314 312 311 312 312 312 311 312 312 311 312 312 312 311 311 310 311 313 310 307 309 312 313 313 312 312 311 310 311 312 312 314 314 311 308 308 309 310 310 309 310 309 308 310 310 309 310 309 310 312 310 311 312 311 311 312 313 313 311 310 310 312 314 314 313
310 310 311 310 311 311 311 311 311 311 310 309 312 314 313 312 311 307 306 308 310 309 310 313 313 312 312 311 311 312 312 312 311 311 312 311 310 311 311 310 311 310 308 310 313 314 312 311 313 312 311 312 313 311 310 313 314 311 310 310 312 311 310 311 311 308 308 308 308 309 309 311 313 310 310 310 309 308 309 312 313 310 309 311 313 313 313 313
310 310 310 310 312 311 311 312 312 311 311 309 310 313 312 311 311 309 307 308 311 311 311 313 315 314 313 312 311 312 312 312 311 312 312 311 311 312 311 309 310 309 309 311 312 312 312 313 314 313 312 313 311 308 304 307 312 312 310 311 312 312 312 313 313 310 307 305 306 307 308 312 314 309 306 307 306 305 304 306 310 310 310 311 313 313 313 313
309 308 309 310 311 312 312 312 311 311 311 308 308 310 310 312 312 310 309 310 312 312 312 315 314 311 313 314 313 313 312 312 312 312 312 312 312 311 309 308 309 309 310 312 312 310 311 315 315 312 312 312 310 308 306 307 311 310 311 312 311 312 314 313 312 311 309 307 307 308 309 312 314 308 303 303 303 303 303 303 307 310 311 312 312 312 313 313
307 307 309 310 311 312 312 312 311 311 310 308 310 311 310 311 311 309 310 311 313 313 315 317 312 308 314 316 313 313 312 312 313 312 313 313 311 308 307 307 309 310 310 311 312 311 311 315 315 312 312 313 311 311 311 311 311 310 312 313 311 313 314 310 308 309 310 310 311 311 310 312 314 309 305 305 304 305 305 304 307 310 311 311 311 312 313 314
306 307 308 309 310 311 311 310 310 311 310 309 311 312 311 310 309 308 309 311 312 313 315 315 310 310 316 316 312 313 313 313 315 313 313 314 311 307 306 307 309 310 310 311 311 311 313 315 314 313 314 314 314 314 314 314 312 311 314 314 312 313 312 310 310 310 311 311 310 311 312 311 311 309 309 309 308 308 307 304 306 310 311 311 311 312 313 313
305 306 307 307 308 309 309 308 309 310 310 309 310 312 312 313 310 309 310 312 311 311 313 313 311 313 316 314 312 313 312 314 317 314 312 312 311 309 307 306 308 309 309 310 309 311 315 316 313 312 314 314 314 315 316 317 315 314 316 315 313 312 312 313 313 311 312 311 309 311 314 313 311 309 310 311 309 310 309 305 306 309 311 311 311 312 312 313
304 305 305 306 307 307 307 307 308 310 310 309 310 311 312 313 311 310 311 311 311 312 313 313 314 315 314 312 313 314 312 313 314 314 313 313 312 310 307 306 306 307 309 309 309 312 316 314 312 314 314 314 315 317 318 318 316 315 316 315 313 312 311 313 313 313 313 311 310 312 314 313 312 310 312 313 312 311 310 307 307 310 311 310 311 311 312 313
303 303 302 304 306 307 308 308 308 310 310 309 310 311 311 312 312 312 312 310 310 312 314 315 315 315 313 312 312 314 313 312 312 313 314 313 313 311 309 308 307 307 309 309 308 312 314 312 313 314 313 314 316 316 317 317 315 315 316 315 313 312 311 312 313 314 314 312 312 314 314 313 312 311 313 314 312 311 310 308 309 311 310 310 310 311 312 312
301 301 301 303 304 304 306 308 308 309 310 309 310 311 311 312 312 312 312 312 312 313 313 316 317 315 313 313 312 313 313 312 312 313 312 312 313 313 312 311 309 307 309 311 309 310 312 313 315 313 312 313 314 314 315 316 315 315 316 315 313 312 311 312 312 314 314 313 313 316 316 315 312 312 313 312 310 309 308 308 309 310 310 310 310 311 312 312
301 301 302 302 302 302 303 306 308 310 310 309 310 310 310 311 312 312 312 313 315 314 312 314 316 315 313 313 313 313 313 312 313 313 312 312 313 313 313 313 311 309 310 311 310 308 310 314 316 313 311 313 314 314 314 313 313 314 315 315 313 312 312 312 312 313 314 313 313 315 316 315 312 311 312 310 308 307 308 308 309 310 311 310 310 311 311 312
301 302 302 302 303 302 302 304 307 310 310 309 310 310 310 310 311 312 312 311 313 314 313 313 315 315 313 313 314 315 313 313 314 313 311 312 312 312 313 312 312 312 311 311 311 310 310 313 314 312 311 313 315 314 312 311 311 312 313 313 312 312 312 312 312 313 313 314 314 314 314 313 311 311 311 309 307 307 308 309 309 310 310 310 310 310 311 311
301 301 301 302 303 302 303 303 305 309 310 309 309 309 310 310 310 311 312 310 310 312 312 313 314 315 315 313 314 314 311 310 311 310 309 310 310 310 311 310 311 311 311 311 312 311 311 312 312 311 311 313 313 310 310 311 310 310 312 313 312 312 312 312 312 313 313 313 313 313 313 312 311 310 311 310 309 308 308 309 309 310 310 310 310 310 311 311
Wind_Speed
32 33 32 32 33 33 37 43 44 43 43 44 45 46 46 43 43 41 39 40 37 38 39 36 33 29 27 26 23 22 21 18 17 22 27 26 23 19 16 12 6 8 11 10 11 13 13 10 9 10 12 12 9 11 12 10 11 7 3 3 4 3 2 4 5 4 1 3 7 10 13 8 6 9 7 4 5 5 5 8 10 10 10 8 5 4 10 16
32 31 32 32 33 34 36 41 42 40 40 41 44 45 45 43 43 42 41 39 37 38 37 33 32 30 28 25 22 22 20 17 16 22 31 29 25 20 18 16 11 8 11 12 12 14 14 11 10 12 13 10 8 11 11 9 10 4 1 3 4 3 2 3 4 5 1 3 6 9 12 9 5 9 9 5 3 4 6 7 10 11 11 11 7 5 10 16
33 31 32 33 33 34 36 39 39 38 38 39 42 44 43 42 43 44 42 39 35 34 30 30 32 31 28 24 21 19 18 15 16 24 32 31 28 21 18 18 15 13 12 12 11 13 14 11 11 13 13 9 7 12 9 8 9 2 3 4 4 4 3 3 4 5 3 4 5 7 11 8 5 10 9 5 3 4 8 7 9 11 13 14 11 7 9 15
32 31 32 33 34 34 35 38 38 37 37 38 40 42 42 41 43 44 42 37 33 29 27 27 29 28 25 22 20 18 15 10 16 28 31 30 27 22 21 18 16 15 13 12 11 12 12 10 12 14 12 7 7 10 7 8 8 3 4 2 4 7 3 6 7 5 6 4 4 7 10 7 7 11 9 6 4 5 9 10 11 12 12 14 15 12 10 14
33 31 31 32 35 35 34 37 38 36 36 37 38 39 40 41 42 42 39 36 32 29 27 26 26 25 23 22 20 18 12 4 12 22 24 26 25 22 22 19 16 15 14 13 12 14 13 12 13 15 10 5 6 7 5 8 8 4 2 3 5 8 3 7 10 6 7 6 6 9 9 7 9 9 9 9 6 3 3 6 9 12 12 13 14 15 13 14
34 32 32 31 35 35 34 35 37 36 34 35 37 38 38 39 40 40 39 36 33 30 28 27 27 26 23 22 19 18 16 6 3 7 14 20 21 23 23 19 17 15 16 15 14 15 15 14 14 14 8 3 6 5 5 10 8 4 2 1 6 6 2 9 11 8 8 8 9 10 8 8 9 6 8 12 10 6 3 3 3 6 11 13 13 15 16 15
35 33 33 32 34 34 34 35 36 36 33 33 34 36 36 38 40 40 39 36 33 31 29 28 27 25 23 21 19 20 23 17 5 2 5 14 19 22 23 19 17 16 18 17 16 16 16 17 16 14 8 3 6 4 6 11 6 3 3 4 6 5 5 10 10 7 9 10 10 11 8 7 8 5 7 13 14 13 11 7 4 2 3 9 13 14 15 16
35 34 34 35 35 34 34 35 36 35 34 33 34 34 34 38 40 40 39 36 34 32 30 29 26 25 22 22 22 22 26 27 18 6 6 9 19 21 22 20 18 18 20 19 17 18 18 19 19 16 8 3 6 6 8 9 3 3 3 6 6 6 7 9 8 8 9 10 11 11 7 5 8 5 5 12 14 14 15 14 12 10 5 6 10 13 15 16
35 34 36 36 35 34 35 36 37 36 33 33 33 33 33 36 39 39 39 37 35 33 31 29 25 25 22 24 24 18 24 30 26 14 5 5 18 20 21 20 19 20 21 19 17 17 18 19 22 18 7 5 7 7 10 8 3 3 5 8 8 6 7 8 8 9 9 10 11 9 5 3 6 4 7 14 14 13 14 15 15 15 14 12 10 12 14 16
35 36 38 37 35 36 37 37 36 35 32 33 34 33 33 35 37 38 39 37 35 33 30 28 25 26 24 26 22 11 21 27 25 18 4 3 15 19 20 20 20 20 20 20 18 18 19 18 22 19 7 7 9 7 10 6 2 7 10 9 9 7 7 6 7 9 9 10 10 7 4 3 5 3 5 8 9 11 13 15 17 16 16 16 14 13 13 16
35 38 39 37 36 38 38 35 35 35 33 34 33 32 33 35 36 37 37 35 34 31 29 28 27 27 26 27 23 12 15 20 22 21 9 6 13 19 20 20 19 20 19 20 19 19 19 15 18 18 5 6 10 6 7 3 3 14 15 11 8 7 7 5 6 9 6 6 7 6 4 3 4 3 5 6 7 8 8 10 14 17 17 15 16 15 14 15
37 39 38 36 35 37 37 33 35 37 34 34 33 31 32 34 35 35 34 33 31 30 28 28 27 26 26 25 26 21 13 13 18 21 15 8 12 19 19 19 18 18 18 18 18 18 18 13 16 16 5 8 10 5 6 5 9 15 11 7 4 3 5 3 2 5 3 3 7 7 3 4 6 8 8 8 10 9 9 7 8 13 17 16 16 17 16 15
37 39 38 37 35 35 36 34 36 36 35 34 31 30 31 33 34 34 33 32 30 29 28 28 26 25 23 19 23 25 14 10 14 17 16 11 13 18 18 18 17 17 17 16 16 17 18 13 14 14 8 8 6 5 8 9 11 10 3 1 4 5 3 2 2 2 3 4 8 5 3 5 7 9 9 9 10 11 11 10 9 10 13 16 17 17 17 16
37 38 38 37 34 33 34 36 37 35 34 33 29 29 31 32 33 32 31 30 29 28 27 26 24 23 21 14 15 23 19 11 11 13 15 13 16 18 16 17 16 17 17 16 15 17 18 14 13 12 7 8 8 10 10 7 5 5 3 1 2 5 3 3 2 1 3 5 7 5 5 4 3 5 7 10 11 11 10 9 11 11 11 15 17 19 19 18
37 38 38 36 33 32 33 37 38 34 33 31 28 29 31 31 31 30 29 29 28 26 25 24 23 21 17 12 11 19 22 15 11 13 14 15 18 18 16 16 16 16 16 15 14 16 18 14 12 9 7 11 13 10 6 3 2 2 4 4 2 3 2 2 2 1 1 3 5 5 5 5 2 2 4 8 10 11 12 11 12 13 13 14 15 18 20 20
38 38 36 34 31 31 34 38 36 32 31 29 29 29 30 30 29 29 28 28 27 25 25 23 24 21 11 9 11 16 24 20 13 13 14 16 19 17 16 15 14 15 15 14 13 16 18 14 11 10 10 10 9 7 5 4 3 1 3 4 4 4 3 2 1 2 2 1 4 4 3 2 1 1 3 6 7 7 9 10 12 14 15 16 16 17 19 21
38 38 35 32 30 31 36 38 36 32 30 30 31 31 31 30 29 29 27 26 24 24 23 22 24 19 7 8 12 15 24 25 17 13 14 18 19 17 17 16 14 14 15 15 14 16 17 14 11 8 6 5 4 6 7 5 5 3 2 1 2 3 4 3 2 1 2 1 5 4 4 4 1 3 4 6 6 4 7 9 9 10 12 15 16 17 19 20
39 37 34 32 31 33 36 36 36 33 32 33 32 31 31 29 28 27 26 26 24 22 19 19 22 13 6 11 12 13 22 25 20 14 15 20 18 17 18 16 15 15 16 15 12 13 12 8 6 5 4 4 4 7 8 5 6 8 6 3 2 2 3 3 2 2 1 2 5 4 5 9 7 6 7 7 8 10 12 12 12 12 13 12 14 17 19 21
39 36 33 32 32 34 34 34 36 34 35 35 33 33 31 29 26 24 27 29 24 15 8 18 23 6 1 13 14 12 18 22 20 15 17 21 19 18 17 14 16 17 16 11 7 8 7 5 4 5 6 7 8 10 7 2 5 9 7 4 5 4 3 2 2 1 1 4 7 7 8 10 10 10 10 10 11 12 14 17 18 18 18 17 17 18 20 21
39 37 34 32 33 35 34 35 34 34 38 37 39 37 29 26 18 14 26 27 18 7 2 22 30 5 3 14 19 15 18 21 20 18 19 22 21 19 16 15 16 14 9 6 5 5 5 5 6 7 8 10 10 6 2 3 3 6 5 3 3 4 3 1 2 1 1 4 6 6 7 9 11 11 11 11 10 11 14 17 21 22 22 22 22 22 22 22
39 37 34 32 35 35 34 34 32 37 40 39 46 38 26 28 16 15 26 16 9 6 4 24 32 8 2 15 22 21 21 18 18 21 20 21 22 18 14 14 12 7 3 3 5 4 4 7 8 5 3 6 6 4 5 5 4 5 5 5 3 2 2 1 1 1 1 3 3 1 6 10 12 12 12 11 9 12 14 15 18 21 22 23 23 24 24 23
38 37 34 34 35 34 34 32 32 39 39 41 46 31 28 33 21 28 31 12 9 8 6 27 28 7 5 17 22 22 20 13 13 22 23 24 24 15 12 12 8 5 2 4 5 4 5 8 5 4 5 7 6 3 5 5 4 4 3 4 3 2 3 2 1 2 1 3 1 1 4 9 11 11 12 12 11 14 17 16 16 18 20 23 24 24 24 24
38 36 34 35 34 33 33 30 34 39 39 44 40 25 30 29 19 32 29 11 10 6 7 28 27 9 11 19 20 19 17 11 12 23 25 26 23 15 13 10 5 5 5 7 8 6 6 5 4 7 8 10 5 2 5 5 3 3 2 4 3 2 2 2 4 3 0 1 1 1 4 8 8 8 10 10 11 15 19 21 20 20 22 25 26 26 27 27
37 36 34 35 33 32 31 30 34 37 39 43 33 25 31 25 23 33 21 9 7 4 6 23 24 13 14 20 19 15 13 11 14 24 27 27 23 14 12 9 5 6 6 8 9 7 3 1 4 8 7 8 7 4 6 6 4 1 3 4 2 4 4 1 4 4 2 1 1 2 5 6 4 5 7 4 4 9 13 14 15 16 18 21 23 25 27 28
36 35 33 34 33 32 31 30 33 35 40 39 28 28 31 25 29 30 15 7 5 4 5 14 19 14 13 17 18 15 13 11 14 24 27 26 23 14 9 9 6 6 7 6 6 6 1 2 6 8 4 5 7 6 6 6 5 3 5 5 2 6 6 3 6 5 3 3 0 2 5 3 1 3 5 0 2 4 4 5 8 8 9 13 16 19 21 22
34 33 33 33 33 34 31 28 31 36 40 35 28 31 30 28 32 26 10 4 4 5 5 9 14 14 14 13 17 17 10 7 13 25 28 24 23 16 9 6 1 3 7 6 3 2 2 3 4 5 7 7 6 6 6 5 5 3 3 3 3 5 7 7 7 4 2 2 1 1 5 3 1 3 2 1 4 5 3 3 4 4 5 7 11 14 16 18
33 31 33 33 34 37 32 28 34 39 39 32 29 33 29 30 33 22 8 2 4 7 7 7 8 15 17 13 19 15 5 9 13 19 25 22 21 16 9 6 2 2 5 4 3 1 3 4 2 3 6 6 6 6 5 7 6 2 0 2 5 8 8 8 7 2 0 0 1 0 2 3 4 3 1 1 4 7 4 2 1 2 3 4 7 11 13 15
32 30 31 33 35 37 33 32 39 42 37 31 31 32 30 32 30 17 6 2 4 7 7 7 6 13 18 17 20 10 7 16 11 11 22 19 16 11 6 6 5 5 4 4 5 1 3 5 6 7 6 5 5 2 3 7 4 0 1 1 4 5 5 5 4 2 1 1 3 2 1 4 5 2 1 1 4 7 4 3 1 2 3 4 3 5 8 11
32 29 29 31 34 34 29 31 39 39 34 31 31 31 30 31 24 9 2 3 4 5 5 9 9 12 15 15 13 6 10 13 5 11 21 16 13 7 3 6 8 8 3 1 3 1 1 3 5 5 4 4 3 3 0 3 1 3 5 5 5 4 5 3 2 3 2 3 5 3 1 4 5 2 2 1 2 6 3 3 2 2 4 5 5 2 2 6
31 28 27 29 33 35 27 27 35 34 33 34 32 33 33 27 15 6 3 3 4 4 4 9 10 11 15 11 4 2 5 4 6 16 15 9 10 6 7 10 9 8 3 5 4 2 2 1 2 1 1 3 5 5 3 1 6 10 7 6 7 4 3 2 2 1 2 4 2 2 2 3 4 3 3 2 2 2 3 5 4 3 4 6 7 7 6 8
30 28 26 25 30 33 28 29 34 34 36 36 34 36 29 14 4 5 6 4 5 4 3 5 6 11 18 13 5 3 2 3 8 16 11 5 7 7 8 8 5 4 2 2 3 2 2 3 2 1 3 6 5 6 6 4 7 6 3 5 6 2 1 2 1 0 5 4 1 2 3 3 5 3 1 0 1 1 2 6 7 7 6 6 7 8 10 13
30 27 22 19 23 28 28 31 36 37 38 36 37 35 19 5 3 5 4 5 6 5 5 6 4 9 15 10 4 4 3 2 5 8 8 5 5 6 4 4 5 4 3 5 3 1 2 2 1 1 4 5 4 6 6 2 2 1 4 7 5 3 2 3 3 2 5 2 2 1 2 3 7 6 4 5 3 3 6 6 6 6 5 6 7 8 11 16
30 25 21 17 20 26 28 31 37 40 39 39 37 24 7 4 8 5 4 4 2 2 4 5 4 7 13 10 6 5 2 2 4 4 4 3 4 4 0 1 4 2 2 6 4 3 3 1 1 2 3 7 5 5 5 4 5 5 7 7 5 5 4 5 3 1 3 0 2 1 1 3 5 5 7 9 4 4 7 8 5 4 3 3 6 8 12 17
29 25 22 18 19 25 28 33 39 41 41 40 30 12 4 7 7 4 6 4 1 2 3 6 8 10 10 6 5 6 2 1 2 3 3 4 5 5 3 3 3 1 3 4 3 5 5 3 4 3 2 5 5 2 2 4 5 3 1 2 4 4 4 4 3 2 2 2 2 1 2 4 3 0 2 4 2 4 8 9 9 7 4 1 5 10 13 18
30 26 22 21 23 26 28 36 41 40 43 37 17 5 8 11 6 5 8 5 2 3 3 5 10 11 6 1 2 4 1 1 3 2 4 6 7 7 7 6 5 2 4 5 3 3 3 1 1 2 1 4 3 2 2 4 4 1 1 0 2 2 2 2 1 0 1 1 2 3 3 4 2 3 2 1 3 6 9 10 11 11 8 2 6 12 15 20
33 27 23 22 25 26 29 38 39 39 42 28 8 6 9 6 3 5 7 6 5 8 10 7 6 8 7 2 3 6 2 2 5 3 3 4 5 8 9 7 7 7 6 6 3 2 3 0 2 2 2 1 0 1 1 1 2 2 2 3 2 1 3 4 1 1 1 3 2 3 4 3 3 5 2 2 2 3 5 8 10 12 10 5 8 15 18 22
34 28 23 22 25 26 31 38 37 39 36 17 7 9 5 0 2 3 6 8 10 14 14 9 5 5 8 5 5 9 4 3 4 3 3 3 3 7 8 5 9 12 8 3 1 2 4 2 2 1 1 2 2 1 3 4 2 2 3 5 3 1 1 2 1 1 1 4 1 2 5 4 3 3 1 3 3 4 5 6 7 9 9 7 12 18 22 24
29 26 22 21 24 27 31 35 35 36 25 7 8 11 1 1 2 3 9 12 11 12 9 7 4 2 7 8 6 9 8 6 5 4 4 4 4 8 11 6 7 13 10 3 1 2 2 2 1 1 0 1 2 1 3 3 4 1 2 4 3 2 2 2 2 2 2 4 2 2 3 4 5 4 1 3 7 7 7 6 5 7 10 12 17 22 25 26
25 21 17 20 27 29 30 33 33 29 15 4 10 10 1 3 1 3 13 13 8 8 7 6 2 1 5 7 6 9 9 7 8 6 4 5 4 7 13 10 6 11 13 6 2 2 1 1 2 1 1 0 1 2 5 4 2 2 2 3 0 2 2 2 2 2 3 3 2 2 1 3 6 5 5 7 8 9 9 6 5 9 14 18 22 27 28 28
23 15 11 22 30 28 28 30 27 19 8 5 8 5 1 3 2 5 14 11 4 3 4 4 3 4 5 3 4 7 6 6 9 7 4 6 5 2 9 12 5 6 10 5 1 2 2 1 2 2 1 2 2 2 4 5 4 3 4 5 3 1 1 1 1 1 1 3 3 3 3 3 3 4 8 8 4 5 8 7 6 10 17 22 26 29 30 29
23 8 8 26 32 28 29 25 17 10 4 2 2 1 1 3 5 7 10 7 3 2 3 4 4 5 5 4 4 5 4 4 7 6 2 6 7 3 8 14 10 9 7 3 2 3 1 1 3 4 3 4 2 1 2 2 1 2 3 5 6 4 3 3 4 1 0 2 2 1 4 4 1 2 6 4 2 2 6 6 6 12 19 24 28 31 31 30
20 3 10 31 33 31 30 17 7 6 3 2 2 3 3 4 6 8 8 4 3 3 3 3 3 3 4 5 4 6 7 5 6 7 4 7 9 5 8 16 17 18 13 5 3 3 2 3 4 3 3 2 2 1 0 2 2 0 1 1 2 3 4 5 6 4 3 1 1 1 3 4 1 1 2 1 1 2 5 5 6 12 20 26 29 30 29 29
13 5 17 34 34 32 26 10 6 7 2 1 3 4 4 4 4 6 6 4 2 2 2 2 2 2 2 2 4 7 8 5 5 8 6 6 6 3 7 16 18 17 12 4 3 3 3 3 3 2 1 1 1 0 1 0 1 2 3 2 3 3 2 2 2 3 4 4 3 2 4 4 1 1 1 2 3 4 6 8 9 14 22 27 29 30 29 28
12 11 18 30 33 31 20 7 10 12 3 3 3 3 3 2 3 6 7 5 2 2 4 2 1 2 2 2 4 8 10 6 5 8 5 3 4 2 8 20 21 14 9 7 8 10 6 3 4 4 2 1 1 2 2 1 3 5 3 3 4 2 4 3 1 2 3 6 7 5 6 5 1 2 1 2 3 5 7 10 14 19 24 27 27 27 28 28
12 10 11 20 29 30 16 3 6 9 7 7 5 4 4 3 1 5 8 5 2 2 4 3 2 3 3 3 4 5 10 6 2 6 4 1 2 1 5 19 21 15 10 8 11 14 8 3 6 7 5 5 6 6 6 5 4 3 1 4 7 8 8 5 2 3 5 5 7 7 8 3 2 2 2 3 3 4 7 11 16 21 24 26 26 27 28 28
6 3 5 9 15 18 10 1 3 6 8 9 7 5 6 4 2 3 5 4 2 2 3 2 3 4 3 5 5 5 10 3 3 4 6 4 2 1 2 12 16 12 7 7 14 14 4 1 7 9 9 9 10 9 6 5 6 7 10 12 12 12 11 6 2 3 5 3 5 10 9 3 2 5 5 4 6 6 5 9 16 22 24 26 27 27 27 26
2 1 3 4 4 6 4 3 4 4 8 10 6 4 6 7 5 3 2 2 4 5 3 3 3 4 5 9 6 5 9 4 1 3 5 4 2 2 1 5 9 9 6 9 16 11 2 3 8 10 12 10 6 4 4 6 9 13 15 13 11 11 11 8 8 8 5 4 5 12 11 9 8 8 8 7 6 5 5 12 22 29 30 28 27 26 26 26
3 2 2 3 2 2 3 7 7 6 9 10 4 3 7 9 8 6 2 2 2 5 2 1 3 6 8 11 7 4 6 5 4 4 3 3 3 2 2 1 3 7 4 7 11 7 2 6 8 7 12 11 2 3 4 7 8 9 9 10 11 12 13 13 15 13 8 7 13 15 13 15 12 9 8 8 8 10 14 20 26 30 30 28 27 28 28 27
5 4 3 4 3 1 3 10 12 9 11 10 4 3 8 11 9 5 2 3 3 3 2 3 6 6 7 9 8 7 7 7 6 4 2 3 3 3 3 2 2 5 3 4 5 3 3 6 7 8 12 13 6 4 3 5 5 5 7 10 12 13 15 17 17 16 11 12 16 11 7 12 10 8 8 12 13 13 13 17 20 26 30 30 29 29 29 29
4 4 3 5 6 5 4 8 11 9 8 9 7 4 6 9 9 4 1 4 5 3 3 4 6 6 5 6 7 7 9 10 9 7 7 6 3 3 4 3 3 3 3 4 2 3 4 4 6 7 8 11 7 4 3 4 5 5 5 6 9 11 14 17 17 16 12 14 17 7 2 9 8 10 10 10 10 9 9 14 21 27 33 33 30 30 31 30
4 5 5 4 4 3 3 4 5 6 6 8 8 6 7 10 10 6 1 2 3 5 7 7 6 6 2 4 6 5 7 8 5 9 18 14 9 10 7 4 8 7 4 5 3 3 4 2 3 5 7 9 6 5 6 4 2 3 3 6 11 12 13 14 15 15 13 15 16 9 7 9 6 11 10 8 9 10 11 18 24 28 32 34 33 32 32 31
6 5 6 4 2 2 3 3 3 5 6 5 4 5 5 6 7 7 4 2 2 5 11 12 10 6 2 5 9 7 8 9 3 8 19 15 9 11 8 6 13 12 7 7 4 2 6 4 3 5 9 7 1 3 7 6 2 4 6 11 15 15 14 13 11 12 13 13 13 10 10 7 6 10 10 8 8 10 14 21 26 28 32 37 38 35 31 30
Wind_Direction
209 212 214 211 208 206 205 204 204 205 207 209 209 210 211 209 211 215 215 216 216 220 221 218 216 215 215 214 213 210 207 210 210 210 206 209 225 240 245 240 247 243 233 228 208 202 205 210 206 193 182 178 189 193 185 173 168 170 180 178 167 173 167 168 176 177 83 119 157 175 184 177 154 173 178 178 192 212 229 225 231 226 226 229 208 196 188 184
205 209 211 209 205 205 203 201 202 203 205 207 208 210 211 207 208 213 215 216 216 219 216 210 210 211 212 209 205 203 207 215 224 219 204 207 232 243 242 238 240 242 230 223 211 204 206 207 202 189 178 184 198 189 179 167 164 158 165 184 185 162 126 164 165 166 148 94 144 175 185 182 157 165 176 185 172 198 231 229 228 232 228 220 208 196 190 188
204 206 209 208 204 204 202 198 198 201 203 206 208 210 210 206 206 210 213 215 216 216 209 200 202 204 204 201 198 204 210 221 238 227 209 215 237 244 240 236 234 235 232 224 214 209 209 208 202 187 181 194 197 184 177 169 171 149 179 195 174 146 117 170 163 166 176 103 133 173 179 184 164 163 175 188 164 201 233 229 217 226 227 220 211 203 196 193
201 203 208 207 204 203 202 197 195 198 202 205 208 210 209 205 205 208 210 212 212 209 200 192 191 193 193 193 198 206 205 219 240 232 226 231 239 241 237 232 228 228 229 221 210 210 208 206 197 184 187 203 194 186 182 173 177 161 186 210 138 154 146 168 172 172 186 164 149 161 168 185 178 174 173 168 183 220 236 239 233 230 227 224 217 213 209 200
199 201 204 203 202 201 200 198 196 197 201 204 208 210 208 203 202 205 206 206 205 201 195 191 188 188 189 191 200 199 183 198 245 241 246 245 239 235 230 226 224 222 221 214 205 206 203 199 190 184 193 206 186 187 190 176 169 150 193 351 123 161 158 167 183 182 180 169 153 156 164 181 176 181 181 180 208 215 216 242 246 243 237 234 225 220 218 208
199 200 201 199 198 198 198 197 194 197 202 205 207 207 206 201 197 198 201 201 199 196 191 190 190 189 190 193 196 185 179 198 256 249 250 238 229 224 220 220 220 216 214 209 204 203 199 193 186 186 193 197 192 190 176 172 173 173 184 38 139 159 141 158 178 185 176 161 155 167 172 174 172 187 197 202 224 220 206 232 238 244 238 235 229 226 224 218
198 199 200 198 197 197 196 193 191 195 199 203 205 202 201 198 193 193 196 196 195 193 190 191 191 191 190 187 185 181 196 217 224 352 272 221 209 211 213 213 214 213 208 204 202 201 196 191 187 187 186 180 201 199 163 163 183 212 155 152 146 123 131 154 170 182 181 171 166 174 171 171 184 194 203 218 232 230 231 231 222 233 231 228 226 227 229 227
197 198 197 196 197 196 193 188 188 193 197 201 200 195 195 194 190 189 191 192 191 191 191 192 192 192 188 183 182 185 207 220 221 262 323 209 198 202 207 208 211 211 205 205 205 201 196 193 189 187 189 201 197 180 162 159 201 243 146 152 144 110 132 148 158 163 169 172 166 167 162 172 199 207 224 232 236 235 238 239 240 245 248 239 227 226 229 229
196 195 194 195 194 191 187 186 190 195 196 197 195 192 193 191 186 186 188 188 188 189 191 191 192 191 186 188 187 192 220 224 218 230 320 210 194 196 203 205 208 207 203 205 206 203 198 195 192 189 198 201 181 169 172 175 214 199 140 145 143 116 126 132 143 153 153 158 157 155 146 162 191 217 250 244 244 241 240 242 244 245 246 247 241 233 229 230
192 192 192 192 190 185 183 187 193 193 189 191 193 194 192 186 183 184 186 186 187 188 189 189 190 188 185 188 185 197 230 226 216 219 278 249 197 194 200 203 206 205 203 203 202 201 199 201 199 195 203 189 173 163 175 193 217 148 127 117 121 115 123 130 142 148 143 148 161 157 135 144 165 202 247 234 235 234 233 239 241 241 242 242 242 241 234 231
189 191 191 191 188 185 186 190 192 186 184 190 195 194 188 183 182 182 184 185 186 186 187 188 186 187 188 188 187 201 224 218 214 215 235 263 204 195 197 201 204 202 203 204 201 200 200 206 201 194 206 187 167 145 170 196 117 138 130 106 95 104 112 112 136 146 140 146 169 154 125 130 144 202 237 212 199 202 211 228 234 235 236 236 237 238 238 234
187 190 191 190 188 187 191 190 183 180 185 192 193 189 185 183 181 181 184 185 185 185 185 185 184 185 187 192 200 207 212 211 212 214 228 244 200 193 195 196 199 200 204 208 205 199 196 201 199 196 200 171 158 140 169 155 132 138 136 117 109 129 116 75 111 162 170 156 155 144 158 192 190 213 224 216 211 209 220 232 233 232 230 232 234 234 237 236
186 189 190 188 187 189 192 186 178 180 189 192 188 183 183 182 179 180 183 184 185 184 182 182 182 183 185 194 208 210 211 213 211 214 224 223 192 191 192 192 196 198 202 209 207 199 194 193 196 197 180 158 143 135 145 129 135 140 141 142 138 177 175 49 359 200 183 162 154 157 240 220 204 218 217 215 219 223 238 243 239 235 228 228 231 232 234 236
185 188 187 187 188 190 187 180 178 183 189 188 181 180 181 180 178 180 181 182 182 179 178 178 177 181 187 198 212 210 210 208 204 207 213 204 187 187 190 193 195 197 200 202 203 198 194 191 192 190 166 153 131 123 125 105 128 135 142 204 159 192 182 65 16 246 183 171 168 188 245 239 183 198 223 230 225 225 236 237 233 235 233 230 230 230 231 233
184 184 184 187 191 192 186 179 180 185 186 181 177 177 178 177 176 177 178 178 177 175 174 174 174 177 186 205 215 210 209 206 199 198 201 192 184 186 188 188 190 194 196 193 194 195 191 186 183 168 129 141 138 129 124 101 101 111 166 181 191 213 181 84 39 329 227 172 181 204 237 250 217 169 221 232 224 226 237 242 239 235 234 235 233 232 230 231
182 182 182 185 186 189 187 181 181 182 179 174 173 174 172 172 171 172 172 172 171 170 171 171 174 174 177 206 209 206 207 206 199 193 191 184 182 186 182 179 180 183 184 183 183 185 183 174 160 142 125 139 151 148 136 137 155 202 225 179 169 200 185 157 114 359 332 161 200 232 261 257 189 160 192 196 198 215 237 248 248 241 238 239 238 236 233 230
180 180 181 182 181 182 182 181 179 174 172 170 167 166 163 163 164 165 165 166 166 166 169 172 174 176 189 210 202 201 203 201 196 190 184 178 179 182 176 170 171 173 171 168 168 169 167 160 150 140 135 151 175 164 160 182 182 172 230 176 175 208 189 178 147 72 339 235 213 227 258 252 185 153 180 178 189 232 258 259 256 247 241 239 240 239 235 232
178 179 180 180 178 177 177 179 176 171 169 164 158 156 156 156 157 160 160 158 154 154 165 173 170 176 213 209 203 200 200 197 193 189 181 175 172 175 174 168 167 164 157 154 156 157 151 146 151 149 154 167 177 184 189 192 178 180 190 177 168 218 228 214 151 140 179 221 219 207 238 255 249 235 234 227 241 266 272 268 262 254 250 245 241 239 238 238
176 179 179 177 176 174 176 176 173 170 163 154 149 146 144 145 146 153 157 153 150 148 167 177 172 167 258 195 198 197 191 189 188 186 180 174 168 169 171 167 164 157 150 153 157 155 144 131 159 179 179 180 186 200 207 173 179 189 183 168 158 167 218 243 90 76 207 202 216 218 232 255 256 253 256 254 257 265 268 270 267 260 258 256 250 244 242 243
174 176 176 175 174 174 177 175 170 165 157 150 148 142 138 142 136 146 158 155 154 143 139 176 176 175 5 179 182 177 171 175 181 180 176 174 167 164 166 161 159 157 156 163 153 152 157 166 191 196 187 183 185 190 134 78 160 173 159 169 170 165 184 162 95 50 320 217 218 227 247 263 264 262 262 262 265 261 255 260 263 261 259 258 255 251 247 246
172 174 175 174 173 174 175 173 169 162 155 153 153 149 152 158 153 161 158 149 156 137 115 173 177 193 272 174 171 166 158 160 173 174 174 174 166 163 164 159 159 165 161 118 116 129 172 202 204 189 161 155 149 119 98 96 126 158 174 181 193 210 168 97 118 87 46 237 209 202 257 259 258 261 262 257 258 255 247 244 253 258 258 256 254 253 252 250
171 174 174 172 172 174 173 172 169 161 155 157 158 156 162 164 165 165 156 134 155 145 135 172 177 197 196 170 165 162 153 144 163 171 172 171 170 170 167 167 173 167 129 121 129 138 195 214 188 120 100 98 89 103 120 103 121 150 176 178 193 201 135 117 166 110 68 244 203 145 258 261 255 259 259 247 242 251 252 247 248 252 254 255 254 254 254 251
171 172 171 171 171 172 172 170 165 160 159 161 161 159 162 163 163 161 152 120 143 128 141 173 178 174 160 165 164 161 154 142 159 170 172 171 173 177 170 166 164 143 156 182 175 173 195 212 124 123 139 130 114 145 130 111 134 153 163 178 184 161 170 197 170 156 60 312 288 242 269 272 257 253 253 240 239 251 256 256 256 255 256 257 256 256 256 253
168 168 170 169 169 170 169 166 163 164 166 163 160 159 161 162 159 156 141 93 126 103 133 174 181 172 160 166 167 165 160 154 164 171 173 173 171 172 168 157 136 148 180 190 187 186 180 15 118 138 155 153 143 162 166 168 184 212 205 192 161 168 205 327 123 146 166 179 297 284 270 267 245 245 247 231 240 252 256 261 262 259 258 257 257 256 255 255
164 166 168 168 168 167 163 163 166 169 167 162 160 160 161 161 158 154 132 87 138 130 122 173 186 186 176 172 171 167 159 153 165 171 173 176 171 159 153 156 161 181 179 162 177 199 150 58 151 145 145 159 148 167 195 196 188 212 223 212 206 179 167 112 134 156 189 197 120 323 262 249 117 241 238 259 340 263 251 264 268 264 258 257 257 256 254 254
162 163 166 168 167 163 160 165 169 169 167 164 160 159 160 159 157 155 134 91 173 159 138 168 179 192 194 182 169 160 152 155 169 173 173 178 177 164 148 153 159 178 158 135 159 216 95 109 154 147 147 155 164 185 194 196 193 206 214 188 165 158 140 138 164 183 217 200 77 325 259 251 296 260 219 41 312 279 260 254 272 282 278 269 263 259 256 254
162 162 166 168 166 164 165 169 169 169 169 165 159 158 158 156 158 160 141 88 197 163 152 159 170 189 189 177 167 160 151 158 160 172 174 176 180 174 165 162 128 135 145 137 177 183 108 132 142 139 144 153 179 192 182 188 194 193 193 140 140 145 145 155 169 185 315 106 126 303 292 274 273 264 118 39 283 268 243 205 289 344 330 303 278 268 259 253
162 163 167 168 168 169 171 171 170 169 166 161 157 156 154 155 159 162 151 164 174 142 149 165 166 180 177 172 174 168 139 151 149 175 178 175 175 176 182 178 151 133 143 174 194 179 98 163 175 155 156 176 185 183 165 181 193 207 25 97 127 131 129 145 155 122 50 267 214 164 41 265 258 242 102 29 272 254 220 156 106 49 31 10 330 281 260 245
164 166 168 170 171 172 176 177 171 165 160 157 156 155 153 156 157 151 162 195 150 121 142 159 159 170 170 168 175 160 139 150 140 165 173 173 173 177 173 162 134 113 91 10 176 55 33 196 190 165 175 180 136 33 64 196 157 137 145 106 87 79 76 93 127 114 109 253 228 151 80 257 259 241 185 87 260 248 209 128 111 93 66 50 55 53 206 201
166 167 169 172 172 173 177 176 168 161 157 158 156 154 153 154 154 150 193 198 145 120 127 152 163 166 163 158 162 155 140 132 117 141 154 163 164 150 116 131 127 116 77 30 71 48 359 137 164 193 190 134 106 63 27 31 124 137 148 114 93 73 57 64 36 81 187 242 222 84 7 275 267 248 202 197 236 230 155 138 145 131 98 72 72 86 116 142
169 169 171 175 176 176 173 166 165 161 158 158 154 153 153 145 153 178 174 152 132 134 136 159 163 160 167 167 159 158 111 63 134 142 145 148 146 129 120 129 123 115 119 88 88 24 47 110 136 135 125 129 116 81 50 65 132 138 159 135 112 90 91 111 74 200 226 230 103 40 339 254 238 239 174 255 267 232 181 150 144 139 118 87 85 99 115 128
171 170 166 169 177 178 170 164 164 160 158 158 154 155 152 126 192 199 162 140 150 171 175 173 178 170 172 166 132 138 110 90 168 159 147 147 155 151 157 181 162 146 184 176 150 87 113 113 50 95 151 180 160 105 83 78 180 186 164 156 149 141 165 199 189 208 233 233 54 358 313 238 244 261 277 271 250 235 229 180 145 140 127 96 97 113 122 128
172 166 157 158 171 172 168 165 163 161 160 158 155 155 145 165 193 185 153 166 168 147 136 135 139 154 160 156 147 153 113 111 184 178 138 133 162 167 303 250 170 167 178 162 146 149 161 166 160 137 185 222 211 142 143 182 195 189 166 167 174 154 172 203 184 242 257 252 48 311 296 252 257 272 260 253 228 211 228 216 213 209 168 100 110 132 132 133
170 164 156 153 160 167 167 165 163 163 162 158 156 151 137 184 192 136 153 188 35 75 105 116 124 137 153 158 158 163 123 81 170 167 144 140 159 181 207 202 206 6 103 143 164 173 188 204 178 161 160 195 210 221 169 145 158 190 156 159 187 173 194 202 182 217 219 101 95 188 240 226 221 80 242 254 255 246 244 237 240 234 224 118 125 147 144 137
167 163 160 153 158 168 167 163 165 166 163 159 156 158 176 192 193 155 163 160 114 111 92 117 132 142 159 100 124 193 196 124 169 155 154 166 172 183 188 192 202 174 139 165 185 172 200 242 97 24 30 165 185 292 348 99 124 189 22 111 217 192 143 117 82 161 106 71 159 186 244 246 262 288 255 248 270 255 248 244 243 239 240 226 141 155 153 143
161 159 164 162 163 167 166 166 168 167 165 160 156 188 197 203 177 166 158 130 141 138 116 120 135 148 168 145 178 211 234 120 169 175 176 186 191 187 188 192 190 193 184 168 156 158 186 226 15 20 46 89 285 305 346 89 145 154 159 184 204 59 101 114 112 57 32 259 197 170 250 263 280 277 245 138 201 219 216 229 236 238 241 218 155 159 157 149
159 158 168 171 166 166 168 169 169 169 169 169 184 192 201 185 117 134 131 120 137 142 134 145 165 168 171 164 185 191 171 132 171 195 178 173 204 188 190 206 191 194 203 177 178 215 169 122 10 359 109 46 346 92 68 23 40 142 181 168 141 55 66 123 175 104 176 249 216 171 241 251 232 247 83 114 182 196 185 196 214 223 224 197 164 162 159 153
156 156 167 176 171 168 170 172 171 170 170 180 204 199 194 102 159 128 135 131 138 153 155 160 167 197 178 171 176 174 168 164 173 190 172 174 216 182 176 198 193 194 203 181 150 211 163 132 63 355 156 46 343 153 117 35 16 15 181 143 129 203 200 176 189 170 194 232 240 207 241 259 223 214 163 163 191 202 196 187 190 196 194 180 165 161 160 156
154 151 166 181 174 168 171 173 171 168 169 205 205 204 146 110 151 156 150 140 137 163 170 165 157 226 184 173 153 159 177 178 164 172 183 186 208 178 178 190 188 190 192 177 165 175 139 189 160 61 308 55 335 234 191 167 77 38 129 136 11 281 207 188 166 179 213 214 231 231 207 235 219 207 215 207 198 198 193 185 189 189 186 180 168 162 161 158
158 148 171 183 173 168 169 167 164 166 181 220 199 190 107 114 121 175 161 145 131 169 165 168 162 149 164 159 127 154 185 179 165 182 204 186 188 193 192 190 163 164 173 153 149 157 112 228 168 107 318 208 186 217 213 188 157 149 164 168 185 159 55 250 163 91 238 206 212 239 239 233 206 196 212 212 195 189 190 185 187 189 186 179 170 165 163 160
164 145 172 178 172 164 160 159 162 177 199 207 170 137 162 141 133 168 171 147 97 79 112 136 150 144 144 151 152 155 158 160 176 191 207 191 199 223 202 190 164 141 143 122 164 173 152 186 147 135 177 193 197 292 297 271 208 162 186 185 183 158 135 192 200 152 310 241 210 229 264 258 167 183 216 203 123 186 207 203 183 182 181 173 168 166 163 162
168 137 164 174 173 164 159 158 174 192 196 172 135 104 134 134 133 161 174 152 97 68 88 104 114 135 147 156 157 151 154 164 182 192 211 212 212 218 198 188 169 157 159 164 178 161 100 107 118 135 187 210 301 335 220 267 297 297 263 227 180 173 175 196 208 186 146 142 93 85 279 274 118 136 224 171 171 219 221 213 181 176 176 167 164 165 164 164
163 117 156 171 176 171 165 165 191 191 214 166 125 87 109 126 128 154 172 178 137 87 115 115 117 157 161 154 146 157 168 170 183 198 209 208 213 227 181 172 164 162 166 159 151 142 106 112 121 103 71 337 311 272 147 203 242 227 238 208 187 202 195 193 210 162 148 166 166 170 250 260 104 110 210 206 230 242 223 203 178 172 171 165 164 166 165 166
133 116 150 172 179 178 173 179 194 190 176 116 116 84 104 101 119 158 176 188 174 136 140 129 146 164 146 147 151 166 178 180 204 211 207 184 194 200 172 169 164 167 182 180 174 174 174 162 134 124 123 152 187 212 201 197 214 225 224 185 193 165 95 86 107 146 194 204 185 194 241 247 121 106 168 176 212 237 228 205 184 175 172 167 165 166 166 166
123 111 138 168 178 182 186 201 186 180 161 151 155 148 137 87 87 167 170 164 143 139 139 128 140 125 116 141 127 160 186 186 193 198 196 183 171 97 180 180 175 176 189 188 170 168 178 186 157 163 171 173 193 205 201 193 189 209 204 178 193 180 160 165 161 175 216 200 175 205 236 239 107 146 190 160 176 217 219 201 188 180 175 170 167 168 169 170
131 112 126 160 178 188 196 145 126 167 172 168 165 166 162 143 123 150 150 152 154 122 92 90 136 113 114 160 143 169 197 200 33 176 188 180 162 31 202 190 189 186 177 171 163 156 154 234 186 196 201 196 207 209 191 148 148 191 207 199 196 193 186 179 128 185 205 159 174 221 234 238 175 187 205 195 189 201 195 182 183 182 179 175 173 173 174 174
107 140 135 142 170 182 178 152 152 165 176 177 174 171 163 146 136 143 137 165 179 157 90 43 153 162 169 170 158 174 190 184 75 172 177 168 146 29 128 183 197 193 167 166 168 151 104 212 197 213 222 219 213 194 173 161 181 206 209 195 187 187 184 188 205 211 174 120 225 232 227 237 223 192 203 211 187 187 189 182 183 184 182 178 176 177 178 177
91 121 113 115 155 191 180 172 167 150 164 179 182 157 162 157 158 167 149 64 163 175 147 57 206 204 177 165 158 151 162 175 201 187 148 147 144 105 100 108 199 198 173 164 170 151 140 205 198 204 224 232 198 123 179 187 196 215 204 181 177 176 180 194 213 216 173 171 237 234 214 225 221 184 200 216 194 196 199 191 185 184 182 179 178 180 182 182
90 103 81 74 90 59 113 144 150 150 162 174 178 174 179 175 169 163 117 106 148 208 213 180 195 202 182 172 170 164 167 179 192 192 150 137 146 136 129 127 195 202 174 149 173 181 173 197 193 186 219 233 206 145 198 188 180 204 197 185 177 176 190 200 212 219 201 209 240 238 209 230 219 174 201 219 210 209 198 184 182 182 184 185 183 185 186 186
95 106 102 87 81 70 86 129 147 155 163 176 188 188 185 184 177 157 126 160 159 168 202 190 172 160 170 192 190 189 196 190 183 184 171 152 168 191 179 177 166 163 179 169 169 200 192 194 176 166 217 233 202 152 185 186 189 201 189 182 177 181 199 209 217 221 211 225 242 239 253 258 218 175 200 213 198 192 176 179 188 190 190 191 189 188 189 190
133 122 121 114 87 85 98 113 139 154 166 187 195 181 184 197 183 148 133 238 182 166 174 168 144 126 128 206 207 218 206 187 181 182 176 171 179 186 188 185 161 149 174 189 165 168 188 192 132 150 212 227 200 165 169 146 148 211 189 184 185 190 201 208 216 215 205 221 234 232 255 261 194 162 194 205 184 180 183 192 197 198 197 197 196 194 193 193
142 137 134 126 80 93 128 103 127 162 171 184 186 170 179 191 169 153 173 231 227 192 179 164 148 132 139 196 210 227 205 188 203 187 181 181 177 177 178 168 165 164 166 173 170 168 177 172 142 173 205 219 198 153 152 122 123 231 219 196 191 197 206 207 217 220 211 214 218 216 231 231 144 152 188 203 198 199 204 207 207 206 205 204 203 201 196 194